Tracking 20036 objects as of 22-Nov-2019
Live streaming from Space Station
objects crossing your sky now

ATLAS 41E DEB

Track ATLAS 41E DEB now!
10-day predictions


NORAD ID: 15615
Int'l Code: 1985-021E
Perigee: 712.4 km
Apogee: 777.0 km
Inclination: 107.8 °
Period: 99.6 minutes
Semi major axis: 7115 km
RCS: 0.0182 m2 (small)
Launch date: March 13, 1985
Source: United States (US)
Launch site: AIR FORCE WESTERN TEST RANGE (AFWTR)

Note: This is SATELLITE DEBRIS
aabbcc
Your satellite tracking list
Your tracking list is empty




NASA's NSSDC Master Catalog

Two Line Element Set (TLE):
1 15615U 85021E   19324.89630850 +.00000084 +00000-0 +61943-4 0  9991
2 15615 107.8422 310.3225 0045340 346.3312 044.6395 14.46363001820669
Source of the keplerian elements: AFSPC